This demonstration page uses our WeatherBlox Daily Observations layout. Learn more.

Left ArrowRight Arrow

38.88101, -77.10428

Hourly Observations for January 7, 2022

Temp ( °F °C ) Dew Point ( °F °C ) Humidity (%) Winds ( mph kmh ) Pressure ( in mb ) Visibility ( mi km ) Precip ( " mm )
12:02 am 00:02 Cloudy with Light Snow 36 2.2 20 -6.7 52 52 NE 15 24 29.79 1009 10 16 0.00 0.00
12:52 am 00:52 Cloudy with Light Snow 34 1.1 23 -5 64 64 N 13 20 29.79 1009 3 5 0.01 0.25
12:59 am 00:59 Cloudy with Light Snow 33 0.6 23 -5 66 66 N 10 17 29.79 1009 3 4 0.00 0.00
1:10 am 01:10 Cloudy with Light Snow 33 0.6 24 -4.4 70 70 N 12 19 29.81 1010 2 2 0.01 0.25
1:20 am 01:20 Cloudy with Light Snow 32 0 26 -3.3 79 79 N 12 19 29.82 1010 1 1 0.02 0.51
1:26 am 01:26 Mostly Cloudy with Snow 32 0 26 -3.3 79 79 N 10 17 29.82 1010 1 1 0.02 0.51
1:28 am 01:28 Mostly Cloudy with Snow 32 0 27 -2.8 82 82 NNW 12 19 29.82 1010 1 1 0.03 0.76
1:32 am 01:32 Mostly Cloudy with Heavy Snow 32 0 27 -2.8 82 82 NNW 12 19 29.83 1010 0 0 0.03 0.76
1:36 am 01:36 Mostly Cloudy with Snow 31 -0.6 27 -2.8 85 85 NNW 10 17 29.83 1010 0 0 0.03 0.76
1:52 am 01:52 Mostly Cloudy with Snow 31 -0.6 28 -2.2 89 89 NNW 8 13 29.83 1010 0 0 0.07 1.78
1:54 am 01:54 Mostly Cloudy with Snow 31 -0.6 28 -2.2 89 89 NW 8 13 29.84 1011 0 0 0.00 0.00
2:41 am 02:41 Mostly Cloudy with Heavy Snow 32 0 29 -1.7 88 88 NNW 10 17 29.84 1011 0 0 0.07 1.78
2:47 am 02:47 Cloudy with Snow 32 0 28 -2 87 87 NNW 12 19 29.84 1011 1 1 0.08 2.03
2:52 am 02:52 Mostly Cloudy with Snow 32 0 29 -1.7 88 88 NNW 10 17 29.84 1011 1 1 0.09 2.29
3:08 am 03:08 Cloudy with Light Snow 32 0 29 -1.7 88 88 NNW 12 19 29.84 1011 1 1 0.01 0.25
3:13 am 03:13 Cloudy with Light Snow 32 0 29 -1.7 88 88 NNW 8 13 29.85 1011 1 1 0.01 0.25
3:16 am 03:16 Cloudy with Light Snow 32 0 30 -1.1 92 92 NNW 10 17 29.85 1011 1 2 0.01 0.25
3:28 am 03:28 Cloudy with Light Snow 32 0 29 -1.7 88 88 NNW 10 17 29.85 1011 1 1 0.02 0.51
3:37 am 03:37 Cloudy with Light Snow 32 0 29 -1.7 88 88 NNW 13 20 29.86 1011 1 2 0.02 0.51
3:44 am 03:44 Cloudy with Light Snow 32 0 29 -1.7 88 88 NNW 14 22 29.86 1011 2 2 0.02 0.51
3:49 am 03:49 Cloudy with Light Snow 32 0 28 -2 87 87 NNW 14 22 29.86 1011 2 3 0.02 0.51
3:52 am 03:52 Cloudy with Light Snow 32 0 29 -1.7 88 88 NNW 13 20 29.85 1011 3 4 0.02 0.51
4:00 am 04:00 Cloudy with Light Snow 32 0 28 -2.2 85 85 N 14 22 29.86 1011 3 5 0.00 0.00
4:09 am 04:09 Cloudy with Light Snow 32 0 28 -2.2 85 85 NNW 13 20 29.87 1012 4 6 0.00 0.00
4:20 am 04:20 Cloudy with Light Snow 31 -0.6 27 -2.8 85 85 NNW 15 24 29.87 1012 5 8 0.00 0.00
4:34 am 04:34 Cloudy with Light Snow 31 -0.6 27 -2.8 85 85 NNW 12 19 29.88 1012 5 8 0.00 0.00
4:52 am 04:52 Cloudy with Light Snow 31 -0.6 27 -2.8 85 85 NW 13 20 29.88 1012 6 10 0.00 0.00
4:56 am 04:56 Cloudy 31 -0.6 27 -2.8 85 85 NW 12 19 29.89 1012 7 11 0.00 0.00
5:07 am 05:07 Cloudy with Light Snow 32 0 27 -2.8 82 82 NW 12 19 29.90 1013 10 16 0.00 0.00
5:14 am 05:14 Partly Cloudy 31 -0.6 27 -2.8 85 85 NNW 10 17 29.90 1013 9 14 0.00 0.00
5:52 am 05:52 Mostly Clear 31 -0.6 23 -5 72 72 NW 14 22 29.92 1013 10 16 0.00 0.00
6:52 am 06:52 Mostly Cloudy 30 -1.1 19 -7.2 64 64 NNW 14 22 29.96 1015 10 16 0.00 0.00
7:52 am 07:52 Mostly Sunny 28 -2.2 16 -8.9 60 60 NW 9 15 30.00 1016 10 16 0.00 0.00
8:52 am 08:52 Mostly Cloudy 29 -1.7 17 -8.3 61 61 NW 15 24 30.06 1018 10 16 0.00 0.00
9:52 am 09:52 Partly Cloudy 29 -1.7 14 -10 54 54 WNW 17 28 30.09 1019 10 16 0.00 0.00
10:52 am 10:52 Mostly Sunny 29 -1.7 12 -11.1 49 49 WNW 15 24 30.09 1019 10 16 0.00 0.00
11:52 am 11:52 Mostly Sunny 30 -1.1 12 -11.1 47 47 NW 15 24 30.09 1019 10 16 0.00 0.00
12:52 pm 12:52 Mostly Sunny 31 -0.6 12 -11.1 45 45 WNW 22 35 30.08 1019 10 16 0.00 0.00
1:52 pm 13:52 Mostly Sunny 31 -0.6 11 -11.7 43 43 WNW 17 28 30.11 1020 10 16 0.00 0.00
2:52 pm 14:52 Mostly Sunny 32 0 11 -11.7 41 41 WNW 16 26 30.13 1020 10 16 0.00 0.00
3:52 pm 15:52 Mostly Cloudy 32 0 10 -12.2 40 40 WNW 12 19 30.17 1022 10 16 0.00 0.00
4:52 pm 16:52 Partly Cloudy 30 -1.1 7 -13.9 38 38 WNW 9 15 30.21 1023 10 16 0.00 0.00
5:52 pm 17:52 Partly Cloudy 29 -1.7 8 -13.3 41 41 WNW 17 28 30.25 1025 10 16 0.00 0.00
6:52 pm 18:52 Mostly Clear 28 -2.2 7 -13.9 41 41 NNW 13 20 30.30 1026 10 16 0.00 0.00
7:52 pm 19:52 Mostly Cloudy 27 -2.8 7 -13.9 43 43 NW 8 13 30.33 1027 10 16 0.00 0.00
8:52 pm 20:52 Partly Cloudy 27 -2.8 7 -13.9 43 43 VRB 5 7 30.35 1028 10 16 0.00 0.00
9:52 pm 21:52 Partly Cloudy 26 -3.3 8 -13.3 46 46 W 7 11 30.37 1029 10 16 0.00 0.00
10:52 pm 22:52 Mostly Clear 25 -3.9 8 -13.3 48 48 W 7 11 30.40 1029 10 16 0.00 0.00
11:52 pm 23:52 Mostly Clear 25 -3.9 8 -13.3 48 48 WNW 6 9 30.42 1030 10 16 0.00 0.00

Powered by AerisWeather